DW7214 Weather Reports


time (UTC)temp
F
wind
direction
speed
knots
gust
knots
rain 1hr
in
rain 24hr
in
rain mn
in
humidity
%
barometer
mb
20260505031522 61 60 0.9 1.7 0.00 0.00 0.00 74 1011.6
20260505030028 63 60 0.9 2.6 0.00 0.00 0.00 71 1011.4
20260505024512 65 129 0.9 5.2 0.00 0.00 0.00 68 1011.2
20260505023019 66 159 2.6 7.8 0.00 0.00 0.00 66 1011.2
20260505021525 68 146 0.9 8.7 0.00 0.00 0.00 64 1010.9
20260505020025 68 148 1.7 8.7 0.00 0.00 0.00 63 1010.9
20260505014508 70 130 2.6 7.8 0.00 0.00 0.00 61 1011.0
20260505013014 71 116 1.7 6.1 0.00 0.00 0.00 61 1011.0
20260505011522 71 135 3.5 10.4 0.00 0.00 0.00 60 1011.1
20260505010024 72 121 3.5 8.7 0.00 0.00 0.00 58 1011.1
20260505004526 73 114 1.7 6.1 0.00 0.00 0.00 58 1011.2
20260505003015 73 55 3.5 7.8 0.00 0.00 0.00 59 1011.3
20260505001521 73 150 3.5 9.6 0.00 0.00 0.00 57 1011.3
20260505000023 74 157 2.6 6.1 0.00 0.00 0.00 59 1011.5
20260504234525 73 147 1.7 9.6 0.00 0.00 0.00 61 1011.6
20260504233028 74 119 1.7 7.0 0.00 0.00 0.00 58 1011.7
20260504231517 74 57 1.7 9.6 0.00 0.00 0.00 60 1011.9
20260504230027 73 80 0.9 9.6 0.00 0.00 0.00 61 1011.9
20260504224526 72 142 1.7 7.0 0.00 0.00 0.00 64 1012.1
20260504223028 72 159 1.7 5.2 0.00 0.00 0.00 65 1012.3
20260504221522 72 55 2.6 5.2 0.00 0.00 0.00 65 1012.5
20260504220023 71 140 1.7 8.7 0.00 0.00 0.00 65 1012.7
20260504214526 71 30 0.9 8.7 0.00 0.00 0.00 65 1012.9
20260504213024 70 60 1.7 6.1 0.00 0.00 0.00 66 1012.9
20260504211528 69 115 0.9 8.7 0.00 0.00 0.00 66 1013.1
20260504210018 70 153 1.7 5.2 0.00 0.00 0.00 66 1013.3
20260504204504 70 55 1.7 5.2 0.00 0.00 0.00 66 1013.5
20260504203011 69 190 1.7 5.2 0.00 0.00 0.00 66 1013.5
20260504201513 69 65 2.6 5.2 0.00 0.00 0.00 67 1013.7
20260504200032 67 138 0.9 5.2 0.00 0.00 0.00 68 1013.8
20260504194522 67 70 1.7 4.3 0.00 0.00 0.00 68 1013.9
20260504193008 66 46 1.7 6.1 0.00 0.00 0.00 70 1014.0
20260504191520 65 65 0.9 5.2 0.00 0.00 0.00 72 1014.3
20260504190016 64 28 2.6 5.2 0.00 0.00 0.00 71 1014.3
20260504184518 63 89 0.9 6.1 0.00 0.00 0.00 74 1014.4
20260504183037 63 144 1.7 4.3 0.00 0.00 0.00 72 1014.6
20260504181513 62 44 0.9 5.2 0.00 0.00 0.00 76 1014.6
20260504180017 61 76 0.0 3.5 0.00 0.00 0.00 77 1014.5
20260504174522 60 144 0.9 3.5 0.00 0.00 0.00 78 1014.4
20260504173026 59 137 2.6 5.2 0.00 0.00 0.00 78 1014.6
20260504171508 59 67 0.9 4.3 0.00 0.00 0.00 81 1014.5
20260504081526 57 46 0.9 3.5 0.00 0.00 0.00 81 1009.6
20260504050024 64 244 0.0 1.7 0.00 0.00 0.00 68 1008.5
20260504044535 66 172 0.0 1.7 0.00 0.00 0.00 62 1008.5
20260504043023 68 225 0.0 1.7 0.00 0.00 0.00 60 1008.1
20260504041525 71 321 0.9 1.7 0.00 0.00 0.00 54 1007.8
20260504040028 72 263 0.9 3.5 0.00 0.00 0.00 48 1007.6
20260504034534 73 292 1.7 4.3 0.00 0.00 0.00 47 1007.5
20260504033020 74 240 1.7 3.5 0.00 0.00 0.00 47 1007.4